Regional Weather Roundup
Issued by NWS

Home | Current Version | Previous Version | Graphics & Text | Print | Product List | Glossary On
Versions: 1 2 3 4 5 6 7 8 9 10 11 12 13 14 15 16 17 18 19 20 21 22 23 24 25 26 27 28 29 30 31 32 33 34 35 36 37 38 39 40 41 42 43 44 45 46 47 48 49 50
000
ASUS45 KPSR 221810
RWRAZ

ARIZONA REGIONAL HOURLY WEATHER ROUNDUP
NATIONAL WEATHER SERVICE PHOENIX AZ
1100 AM MST TUE APR 22 2014

NOTE: FAIR INDICATES FEW OR NO CLOUDS BELOW 12,000 FEET WITH NO
SIGNIFICANT WEATHER AND/OR OBSTRUCTIONS TO VISIBILITY.

AZZ001>003-036-221900-
NORTHWEST ARIZONA

CITY           SKY/WX    TMP DP  RH WIND       PRES   REMARKS
BULLHEAD CITY  CLOUDY    86  36  16 S23       29.72F
KINGMAN        PTSUNNY   81  29  15 S25G36    29.87F
6HR MIN TEMP:  63; 6HR MAX TEMP:  81;

$$

AZZ004>008-015-016-018-221900-
NORTH CENTRAL ARIZONA

CITY           SKY/WX    TMP DP  RH WIND       PRES   REMARKS
GRAND CANYON   PTSUNNY   68  30  24 SW23G36   30.04F
6HR MIN TEMP:  30; 6HR MAX TEMP:  68;

WILLIAMS       PTSUNNY   66  28  24 S22G38    30.13F
PRESCOTT       MOSUNNY   72  29  20 S18G32    30.01F
6HR MIN TEMP:  50; 6HR MAX TEMP:  72;

FLAGSTAFF      PTSUNNY   65  29  25 S21G35    30.09F
6HR MIN TEMP:  34; 6HR MAX TEMP:  65;

PAYSON         SUNNY     73  32  21 VRB7G16   30.06S
PAGE           CLOUDY    76  31  19 VRB5      29.88F
6HR MIN TEMP:  61; 6HR MAX TEMP:  76;

$$

AZZ009>014-017-221900-
NORTHEAST ARIZONA

CITY           SKY/WX    TMP DP  RH WIND       PRES   REMARKS
WINSLOW        PTSUNNY   81  29  15 SW23G32   29.98F
6HR MIN TEMP:  48; 6HR MAX TEMP:  82;

SAINT JOHNS    MOSUNNY   79  22  12 S20G29    30.02F
6HR MIN TEMP:  45; 6HR MAX TEMP:  79;

WINDOW ROCK    CLOUDY    71  23  16 S17G33    30.09F
6HR MIN TEMP:  37; 6HR MAX TEMP:  74;

SHOW LOW       MOSUNNY   72  27  18 SW30G38   30.10F
$$

AZZ023-221900-
GREATER PHOENIX AREA

CITY           SKY/WX    TMP DP  RH WIND       PRES   REMARKS
PHOENIX        PTSUNNY   87  36  16 CALM      29.83F
6HR MIN TEMP:  70; 6HR MAX TEMP:  88;

BUCKEYE          N/A     84  37  18 S5        29.85F
GLENDALE       PTSUNNY   88  36  15 S6        29.85F
LUKE AFB       NOT AVBL
6HR MIN TEMP:  64; 6HR MAX TEMP:  87;

DEER VALLEY    MOSUNNY   85  33  15 W7        29.85F
6HR MIN TEMP:  68; 6HR MAX TEMP:  85;

SCOTTSDALE     SUNNY     86  36  16 SW7       29.87F
6HR MIN TEMP:  68; 6HR MAX TEMP:  86;

MESA-FALCON    PTSUNNY   86  36  16 S6        29.85F
MESA-GATEWAY   PTSUNNY   86  36  16 S5        29.87F
CHANDLER       PTSUNNY   86  36  16 S10       29.86S
$$

AZZ027-028-221900-
SOUTHWEST MARICOPA COUNTY AND PINAL COUNTY

CITY           SKY/WX    TMP DP  RH WIND       PRES   REMARKS
CASA GRANDE    SUNNY     88  37  16 SW6       29.86F
6HR MIN TEMP:  63; 6HR MAX TEMP:  90;

GILA BEND      PTCLDY    91  34  13 W10G20    29.84F
$$

AZZ503-504-507>509-221900-
SOUTHEAST ARIZONA

CITY           SKY/WX    TMP DP  RH WIND       PRES   REMARKS
TUCSON         SUNNY     87  32  14 NE3       29.93F
6HR MIN TEMP:  64; 6HR MAX TEMP:  87;

DAVIS-MONTHAN  SUNNY     85  36  17 NW5       29.92F
6HR MIN TEMP:  62; 6HR MAX TEMP:  85;

RYAN FIELD       N/A     86  34  15 SE69      29.92F
NOGALES        SUNNY     83  34  17 S13G22    30.00F
6HR MIN TEMP:  50; 6HR MAX TEMP:  83;

SIERRA VISTA   PTSUNNY   82  27  13 S10G22    30.03F
DOUGLAS        SUNNY     81  26  13 VRB7      30.02F
SAFFORD        SUNNY     87  26  11 SE10      29.93F
6HR MIN TEMP:  58; 6HR MAX TEMP:  87;

$$

AZZ020-021-025-026-031-221900-
SOUTHWEST ARIZONA

CITY           SKY/WX    TMP DP  RH WIND       PRES   REMARKS
YUMA           PTSUNNY   88  35  15 VRB5      29.81F
6HR MIN TEMP:  70; 6HR MAX TEMP:  88;

$$

CAZ031-033-041-043-047-048-061-221900-
SOUTHERN CALIFORNIA

CITY           SKY/WX    TMP DP  RH WIND       PRES   REMARKS
DOWNTOWN L.A.  MOSUNNY   69  52  54 VRB3      29.96F
6HR MIN TEMP:  61; 6HR MAX TEMP:  69;

L.A. AIRPORT   PTSUNNY   64  52  63 W17       29.98S
6HR MIN TEMP:  60; 6HR MAX TEMP:  67;

SAN DIEGO      CLOUDY    63  52  67 SW6       30.02R
6HR MIN TEMP:  60; 6HR MAX TEMP:  63;

BURBANK        MOSUNNY   64  49  57 SE10      29.95F
6HR MIN TEMP:  58; 6HR MAX TEMP:  65;

ONTARIO        PTSUNNY   64  50  60 S8        29.98S
6HR MIN TEMP:  57; 6HR MAX TEMP:  64;

RIVERSIDE      CLOUDY    63  51  65 VRB5      29.99R
6HR MIN TEMP:  58; 6HR MAX TEMP:  63;

PALM SPRINGS   PTSUNNY   79  40  24 NW14      29.82R
6HR MIN TEMP:  66; 6HR MAX TEMP:  80;

EL CENTRO NAS  PTSUNNY   91  25   9 W22       29.80S
6HR MIN TEMP:  75; 6HR MAX TEMP:  91; 6HR PCP: TRACE;

IMPERIAL       SUNNY     90  31  12 SW14      29.79F
6HR MIN TEMP:  72; 6HR MAX TEMP:  90;

BLYTHE         PTSUNNY   90  23   9 S17       29.78F
6HR MIN TEMP:  73; 6HR MAX TEMP:  90;

NEEDLES        PTSUNNY   90  30  11 SW16G22   29.74F
6HR MIN TEMP:  75; 6HR MAX TEMP:  91;

$$

NVZ020-UTZ003-221900-
SOUTHERN NEVADA-UTAH

CITY           SKY/WX    TMP DP  RH WIND       PRES   REMARKS
LAS VEGAS      PTSUNNY   80  12   7 S26G36    29.71F
6HR MIN TEMP:  74; 6HR MAX TEMP:  80;

SALT LAKE CITY CLOUDY    71  30  21 S26G32    29.67F
6HR MIN TEMP:  66; 6HR MAX TEMP:  71;

$$

NMZ009-TXZ055-221900-
NEW MEXICO-WEST TEXAS

CITY           SKY/WX    TMP DP  RH WIND       PRES   REMARKS
ALBUQUERQUE    MOSUNNY   77  35  21 S16G24    30.10F
6HR MIN TEMP:  59; 6HR MAX TEMP:  77;

EL PASO        MOSUNNY   82  40  22 SE10G21   30.05F
6HR MIN TEMP:  63; 6HR MAX TEMP:  82;

$$


........................KEY........................
SKY/WX - SKY CONDITION/WEATHER
TMP    - TEMPERATURE IN FAHRENHEIT
DP     - DEW POINT IN FAHRENHEIT
RH     - RELATIVE HUMIDITY IN PERCENT
WIND   - DIRECTION AND SPEED IN MILES PER HOUR (MPH)
VRB    - VARIABLE WIND DIRECTION
PRES   - MEAN SEA LEVEL PRESSURE IN INCHES OF MERCURY
         F - FALLING PRESSURE   R - RISING PRESSURE
         S - STEADY PRESSURE
VSB    - VISIBILITY IN MILES
HX     - HEAT INDEX IN FAHRENHEIT
WCI    - WIND CHILL INDEX IN FAHRENHEIT
TC     - TEMPERATURE IN CELSIUS WHICH IS ALSO KNOWN AS
         TEMPERATURE IN CENTIGRADE
AFB    - AIR FORCE BASE
         LUKE AFB IS LUKE AIR FORCE BASE
         DAVIS-MONTHAN IS DAVIS-MONTHAN AIR FORCE BASE
NAS    - NAVAL AIR STATION
         EL CENTRO NAS IS EL CENTRO NAVAL AIR STATION
N/A    - NOT AVAILABLE



USA.gov is the U.S. government's official web portal to all federal, state and local government web resources and services.